owner,sensor,date,latitude,longitude,vertical_datum,sea_water_practical_salinity,qcFlag 
ENP,ioos.station.NOAA.NDBC:DKKF1:1,2019-03-01T00:00:00Z,25.1800,-80.4900,1.5,34.3,11111222 
ENP,ioos.station.NOAA.NDBC:DKKF1:1,2019-03-01T01:00:00Z,25.1800,-80.4900,1.5,34.4,11111222 
ENP,ioos.station.NOAA.NDBC:DKKF1:1,2019-03-01T02:00:00Z,25.1800,-80.4900,1.5,34.39,1111122 
ENP,ioos.station.NOAA.NDBC:DKKF1:1,2019-03-01T03:00:00Z,25.1800,-80.4900,1.5,34.4,11111222 
ENP,ioos.station.NOAA.NDBC:DKKF1:1,2019-03-01T04:00:00Z,25.1800,-80.4900,1.5,34.39,1111122 
ENP,ioos.station.NOAA.NDBC:DKKF1:1,2019-03-01T05:00:00Z,25.1800,-80.4900,1.5,34.4,1111122 
ENP,ioos.station.NOAA.NDBC:DKKF1:1,2019-03-01T06:00:00Z,25.1800,-80.4900,1.5,34.4,1111122 
ENP,ioos.station.NOAA.NDBC:DKKF1:1,2019-03-01T07:00:00Z,25.1800,-80.4900,1.5,34.4,1111122 
ENP,ioos.station.NOAA.NDBC:DKKF1:1,2019-03-01T08:00:00Z,25.1800,-80.4900,1.5,34.4,1111122 
ENP,ioos.station.NOAA.NDBC:DKKF1:1,2019-03-01T09:00:00Z,25.1800,-80.4900,1.5,34.4,1111122 
ENP,ioos.station.NOAA.NDBC:DKKF1:1,2019-03-01T10:00:00Z,25.1800,-80.4900,1.5,34.4,1111122 
ENP,ioos.station.NOAA.NDBC:DKKF1:1,2019-03-01T11:00:00Z,25.1800,-80.4900,1.5,34.4,1111122 
ENP,ioos.station.NOAA.NDBC:DKKF1:1,2019-03-01T12:00:00Z,25.1800,-80.4900,1.5,34.4,1111122 
ENP,ioos.station.NOAA.NDBC:DKKF1:1,2019-03-01T13:00:00Z,25.1800,-80.4900,1.5,34.4,1111122 
ENP,ioos.station.NOAA.NDBC:DKKF1:1,2019-03-01T14:00:00Z,25.1800,-80.4900,1.5,34.39,1111122 
ENP,ioos.station.NOAA.NDBC:DKKF1:1,2019-03-01T15:00:00Z,25.1800,-80.4900,1.5,34.38,1111122 
ENP,ioos.station.NOAA.NDBC:DKKF1:1,2019-03-01T16:00:00Z,25.1800,-80.4900,1.5,34.38,1111122 
ENP,ioos.station.NOAA.NDBC:DKKF1:1,2019-03-01T17:00:00Z,25.1800,-80.4900,1.5,34.38,1111122 
ENP,ioos.station.NOAA.NDBC:DKKF1:1,2019-03-01T18:00:00Z,25.1800,-80.4900,1.5,34.41,1111122 
ENP,ioos.station.NOAA.NDBC:DKKF1:1,2019-03-01T19:00:00Z,25.1800,-80.4900,1.5,34.41,1111122 
ENP,ioos.station.NOAA.NDBC:DKKF1:1,2019-03-01T20:00:00Z,25.1800,-80.4900,1.5,34.41,1111122 
ENP,ioos.station.NOAA.NDBC:DKKF1:1,2019-03-01T21:00:00Z,25.1800,-80.4900,1.5,34.43,1111122 
ENP,ioos.station.NOAA.NDBC:DKKF1:1,2019-03-01T22:00:00Z,25.1800,-80.4900,1.5,34.44,1111122 
ENP,ioos.station.NOAA.NDBC:DKKF1:1,2019-03-01T23:00:00Z,25.1800,-80.4900,1.5,34.45,1111122 
ENP,ioos.station.NOAA.NDBC:DKKF1:1,2019-03-02T00:00:00Z,25.1800,-80.4900,1.5,34.45,1111122 
ENP,ioos.station.NOAA.NDBC:DKKF1:1,2019-03-02T01:00:00Z,25.1800,-80.4900,1.5,34.5,11111222 
ENP,ioos.station.NOAA.NDBC:DKKF1:1,2019-03-02T02:00:00Z,25.1800,-80.4900,1.5,34.45,1111122 
ENP,ioos.station.NOAA.NDBC:DKKF1:1,2019-03-02T03:00:00Z,25.1800,-80.4900,1.5,34.4,11111222 
ENP,ioos.station.NOAA.NDBC:DKKF1:1,2019-03-02T04:00:00Z,25.1800,-80.4900,1.5,34.44,1111122 
ENP,ioos.station.NOAA.NDBC:DKKF1:1,2019-03-02T05:00:00Z,25.1800,-80.4900,1.5,34.44,1111122 
ENP,ioos.station.NOAA.NDBC:DKKF1:1,2019-03-02T06:00:00Z,25.1800,-80.4900,1.5,34.44,1111122 
ENP,ioos.station.NOAA.NDBC:DKKF1:1,2019-03-02T07:00:00Z,25.1800,-80.4900,1.5,34.44,1111122 
ENP,ioos.station.NOAA.NDBC:DKKF1:1,2019-03-02T08:00:00Z,25.1800,-80.4900,1.5,34.44,1111122 
ENP,ioos.station.NOAA.NDBC:DKKF1:1,2019-03-02T09:00:00Z,25.1800,-80.4900,1.5,34.44,1111122 
ENP,ioos.station.NOAA.NDBC:DKKF1:1,2019-03-02T10:00:00Z,25.1800,-80.4900,1.5,34.44,1111122 
ENP,ioos.station.NOAA.NDBC:DKKF1:1,2019-03-02T11:00:00Z,25.1800,-80.4900,1.5,34.44,1111122 
ENP,ioos.station.NOAA.NDBC:DKKF1:1,2019-03-02T12:00:00Z,25.1800,-80.4900,1.5,34.44,1111122 
ENP,ioos.station.NOAA.NDBC:DKKF1:1,2019-03-02T13:00:00Z,25.1800,-80.4900,1.5,34.44,1111122 
ENP,ioos.station.NOAA.NDBC:DKKF1:1,2019-03-02T14:00:00Z,25.1800,-80.4900,1.5,34.44,1111122 
ENP,ioos.station.NOAA.NDBC:DKKF1:1,2019-03-02T15:00:00Z,25.1800,-80.4900,1.5,34.44,1111122 
ENP,ioos.station.NOAA.NDBC:DKKF1:1,2019-03-02T16:00:00Z,25.1800,-80.4900,1.5,34.44,1111122 
ENP,ioos.station.NOAA.NDBC:DKKF1:1,2019-03-02T17:00:00Z,25.1800,-80.4900,1.5,34.44,1111122 
ENP,ioos.station.NOAA.NDBC:DKKF1:1,2019-03-02T18:00:00Z,25.1800,-80.4900,1.5,34.44,1111122 
ENP,ioos.station.NOAA.NDBC:DKKF1:1,2019-03-02T19:00:00Z,25.1800,-80.4900,1.5,34.46,1111122 
ENP,ioos.station.NOAA.NDBC:DKKF1:1,2019-03-02T20:00:00Z,25.1800,-80.4900,1.5,34.47,1111122 
ENP,ioos.station.NOAA.NDBC:DKKF1:1,2019-03-02T21:00:00Z,25.1800,-80.4900,1.5,34.47,1111122 
ENP,ioos.station.NOAA.NDBC:DKKF1:1,2019-03-02T22:00:00Z,25.1800,-80.4900,1.5,34.47,1111122 
ENP,ioos.station.NOAA.NDBC:DKKF1:1,2019-03-02T23:00:00Z,25.1800,-80.4900,1.5,34.48,1111122 
ENP,ioos.station.NOAA.NDBC:DKKF1:1,2019-03-03T00:00:00Z,25.1800,-80.4900,1.5,34.49,1111122 
ENP,ioos.station.NOAA.NDBC:DKKF1:1,2019-03-03T01:00:00Z,25.1800,-80.4900,1.5,34.5,11111222 
ENP,ioos.station.NOAA.NDBC:DKKF1:1,2019-03-03T02:00:00Z,25.1800,-80.4900,1.5,34.48,1111122 
ENP,ioos.station.NOAA.NDBC:DKKF1:1,2019-03-03T03:00:00Z,25.1800,-80.4900,1.5,34.5,11111222 
ENP,ioos.station.NOAA.NDBC:DKKF1:1,2019-03-03T04:00:00Z,25.1800,-80.4900,1.5,34.5,1111122 
ENP,ioos.station.NOAA.NDBC:DKKF1:1,2019-03-03T05:00:00Z,25.1800,-80.4900,1.5,34.5,1111122 
ENP,ioos.station.NOAA.NDBC:DKKF1:1,2019-03-03T06:00:00Z,25.1800,-80.4900,1.5,34.5,1111122 
ENP,ioos.station.NOAA.NDBC:DKKF1:1,2019-03-03T07:00:00Z,25.1800,-80.4900,1.5,34.5,1111122 
ENP,ioos.station.NOAA.NDBC:DKKF1:1,2019-03-03T08:00:00Z,25.1800,-80.4900,1.5,34.5,1111122 
ENP,ioos.station.NOAA.NDBC:DKKF1:1,2019-03-03T09:00:00Z,25.1800,-80.4900,1.5,34.5,1111122 
ENP,ioos.station.NOAA.NDBC:DKKF1:1,2019-03-03T10:00:00Z,25.1800,-80.4900,1.5,34.5,1111122 
ENP,ioos.station.NOAA.NDBC:DKKF1:1,2019-03-03T11:00:00Z,25.1800,-80.4900,1.5,34.51,1111122 
ENP,ioos.station.NOAA.NDBC:DKKF1:1,2019-03-03T12:00:00Z,25.1800,-80.4900,1.5,34.52,1111122 
ENP,ioos.station.NOAA.NDBC:DKKF1:1,2019-03-03T13:00:00Z,25.1800,-80.4900,1.5,34.52,1111122 
ENP,ioos.station.NOAA.NDBC:DKKF1:1,2019-03-03T14:00:00Z,25.1800,-80.4900,1.5,34.52,1111122 
ENP,ioos.station.NOAA.NDBC:DKKF1:1,2019-03-03T15:00:00Z,25.1800,-80.4900,1.5,34.53,1111122 
ENP,ioos.station.NOAA.NDBC:DKKF1:1,2019-03-03T16:00:00Z,25.1800,-80.4900,1.5,34.53,1111122 
ENP,ioos.station.NOAA.NDBC:DKKF1:1,2019-03-03T17:00:00Z,25.1800,-80.4900,1.5,34.55,1111122 
ENP,ioos.station.NOAA.NDBC:DKKF1:1,2019-03-03T18:00:00Z,25.1800,-80.4900,1.5,34.56,1111122 
ENP,ioos.station.NOAA.NDBC:DKKF1:1,2019-03-03T19:00:00Z,25.1800,-80.4900,1.5,34.58,1111122 
ENP,ioos.station.NOAA.NDBC:DKKF1:1,2019-03-03T20:00:00Z,25.1800,-80.4900,1.5,34.59,1111122 
ENP,ioos.station.NOAA.NDBC:DKKF1:1,2019-03-03T21:00:00Z,25.1800,-80.4900,1.5,34.61,1111122 
ENP,ioos.station.NOAA.NDBC:DKKF1:1,2019-03-03T22:00:00Z,25.1800,-80.4900,1.5,34.62,1111122 
ENP,ioos.station.NOAA.NDBC:DKKF1:1,2019-03-03T23:00:00Z,25.1800,-80.4900,1.5,34.62,1111122 
ENP,ioos.station.NOAA.NDBC:DKKF1:1,2019-03-04T00:00:00Z,25.1800,-80.4900,1.5,34.62,1111122 
ENP,ioos.station.NOAA.NDBC:DKKF1:1,2019-03-04T01:00:00Z,25.1800,-80.4900,1.5,34.6,11111222 
ENP,ioos.station.NOAA.NDBC:DKKF1:1,2019-03-04T02:00:00Z,25.1800,-80.4900,1.5,34.63,1111122 
ENP,ioos.station.NOAA.NDBC:DKKF1:1,2019-03-04T03:00:00Z,25.1800,-80.4900,1.5,34.6,11111222 
ENP,ioos.station.NOAA.NDBC:DKKF1:1,2019-03-04T04:00:00Z,25.1800,-80.4900,1.5,34.63,1111122 
ENP,ioos.station.NOAA.NDBC:DKKF1:1,2019-03-04T05:00:00Z,25.1800,-80.4900,1.5,34.63,1111122 
ENP,ioos.station.NOAA.NDBC:DKKF1:1,2019-03-04T06:00:00Z,25.1800,-80.4900,1.5,34.63,1111122 
ENP,ioos.station.NOAA.NDBC:DKKF1:1,2019-03-04T07:00:00Z,25.1800,-80.4900,1.5,34.62,1111122 
ENP,ioos.station.NOAA.NDBC:DKKF1:1,2019-03-04T08:00:00Z,25.1800,-80.4900,1.5,34.63,1111122 
ENP,ioos.station.NOAA.NDBC:DKKF1:1,2019-03-04T09:00:00Z,25.1800,-80.4900,1.5,34.63,1111122 
ENP,ioos.station.NOAA.NDBC:DKKF1:1,2019-03-04T10:00:00Z,25.1800,-80.4900,1.5,34.64,1111122 
ENP,ioos.station.NOAA.NDBC:DKKF1:1,2019-03-04T11:00:00Z,25.1800,-80.4900,1.5,34.66,1111122 
ENP,ioos.station.NOAA.NDBC:DKKF1:1,2019-03-04T12:00:00Z,25.1800,-80.4900,1.5,34.67,1111122 
ENP,ioos.station.NOAA.NDBC:DKKF1:1,2019-03-04T13:00:00Z,25.1800,-80.4900,1.5,34.69,1111122 
ENP,ioos.station.NOAA.NDBC:DKKF1:1,2019-03-04T14:00:00Z,25.1800,-80.4900,1.5,34.7,1111122 
ENP,ioos.station.NOAA.NDBC:DKKF1:1,2019-03-04T15:00:00Z,25.1800,-80.4900,1.5,34.72,1111122 
ENP,ioos.station.NOAA.NDBC:DKKF1:1,2019-03-04T16:00:00Z,25.1800,-80.4900,1.5,34.75,1111122 
ENP,ioos.station.NOAA.NDBC:DKKF1:1,2019-03-04T17:00:00Z,25.1800,-80.4900,1.5,34.75,1111122 
ENP,ioos.station.NOAA.NDBC:DKKF1:1,2019-03-04T18:00:00Z,25.1800,-80.4900,1.5,34.77,1111122 
ENP,ioos.station.NOAA.NDBC:DKKF1:1,2019-03-04T19:00:00Z,25.1800,-80.4900,1.5,34.78,1111122 
ENP,ioos.station.NOAA.NDBC:DKKF1:1,2019-03-04T20:00:00Z,25.1800,-80.4900,1.5,34.8,1111122 
ENP,ioos.station.NOAA.NDBC:DKKF1:1,2019-03-04T21:00:00Z,25.1800,-80.4900,1.5,34.8,1111122 
ENP,ioos.station.NOAA.NDBC:DKKF1:1,2019-03-04T22:00:00Z,25.1800,-80.4900,1.5,34.8,1111122 
ENP,ioos.station.NOAA.NDBC:DKKF1:1,2019-03-04T23:00:00Z,25.1800,-80.4900,1.5,34.82,1111122 
ENP,ioos.station.NOAA.NDBC:DKKF1:1,2019-03-05T00:00:00Z,25.1800,-80.4900,1.5,34.85,1111122 
ENP,ioos.station.NOAA.NDBC:DKKF1:1,2019-03-05T01:00:00Z,25.1800,-80.4900,1.5,34.86,1111122 
ENP,ioos.station.NOAA.NDBC:DKKF1:1,2019-03-05T02:00:00Z,25.1800,-80.4900,1.5,34.86,1111122 
ENP,ioos.station.NOAA.NDBC:DKKF1:1,2019-03-05T03:00:00Z,25.1800,-80.4900,1.5,34.9,11111222 
ENP,ioos.station.NOAA.NDBC:DKKF1:1,2019-03-05T04:00:00Z,25.1800,-80.4900,1.5,34.86,1111122 
ENP,ioos.station.NOAA.NDBC:DKKF1:1,2019-03-05T05:00:00Z,25.1800,-80.4900,1.5,34.86,1111122 
ENP,ioos.station.NOAA.NDBC:DKKF1:1,2019-03-05T06:00:00Z,25.1800,-80.4900,1.5,34.86,1111122 
ENP,ioos.station.NOAA.NDBC:DKKF1:1,2019-03-05T07:00:00Z,25.1800,-80.4900,1.5,34.86,1111122 
ENP,ioos.station.NOAA.NDBC:DKKF1:1,2019-03-05T08:00:00Z,25.1800,-80.4900,1.5,34.85,1111122 
ENP,ioos.station.NOAA.NDBC:DKKF1:1,2019-03-05T09:00:00Z,25.1800,-80.4900,1.5,34.85,1111122 
ENP,ioos.station.NOAA.NDBC:DKKF1:1,2019-03-05T10:00:00Z,25.1800,-80.4900,1.5,34.85,1111122 
ENP,ioos.station.NOAA.NDBC:DKKF1:1,2019-03-05T11:00:00Z,25.1800,-80.4900,1.5,34.84,1111122 
ENP,ioos.station.NOAA.NDBC:DKKF1:1,2019-03-05T12:00:00Z,25.1800,-80.4900,1.5,34.83,1111122 
ENP,ioos.station.NOAA.NDBC:DKKF1:1,2019-03-05T13:00:00Z,25.1800,-80.4900,1.5,34.8,1111122 
ENP,ioos.station.NOAA.NDBC:DKKF1:1,2019-03-05T14:00:00Z,25.1800,-80.4900,1.5,34.79,1111122 
ENP,ioos.station.NOAA.NDBC:DKKF1:1,2019-03-05T15:00:00Z,25.1800,-80.4900,1.5,34.79,1111122 
ENP,ioos.station.NOAA.NDBC:DKKF1:1,2019-03-05T16:00:00Z,25.1800,-80.4900,1.5,34.78,1111122 
ENP,ioos.station.NOAA.NDBC:DKKF1:1,2019-03-05T17:00:00Z,25.1800,-80.4900,1.5,34.8,1111122 
ENP,ioos.station.NOAA.NDBC:DKKF1:1,2019-03-05T18:00:00Z,25.1800,-80.4900,1.5,34.8,1111122 
ENP,ioos.station.NOAA.NDBC:DKKF1:1,2019-03-05T19:00:00Z,25.1800,-80.4900,1.5,34.82,1111122 
ENP,ioos.station.NOAA.NDBC:DKKF1:1,2019-03-05T20:00:00Z,25.1800,-80.4900,1.5,34.8,11111222 
ENP,ioos.station.NOAA.NDBC:DKKF1:1,2019-03-05T21:00:00Z,25.1800,-80.4900,1.5,34.84,1111122 
ENP,ioos.station.NOAA.NDBC:DKKF1:1,2019-03-05T22:00:00Z,25.1800,-80.4900,1.5,34.85,1111122 
ENP,ioos.station.NOAA.NDBC:DKKF1:1,2019-03-05T23:00:00Z,25.1800,-80.4900,1.5,34.86,1111122 
ENP,ioos.station.NOAA.NDBC:DKKF1:1,2019-03-06T00:00:00Z,25.1800,-80.4900,1.5,34.86,1111122 
ENP,ioos.station.NOAA.NDBC:DKKF1:1,2019-03-06T01:00:00Z,25.1800,-80.4900,1.5,34.89,1111122 
ENP,ioos.station.NOAA.NDBC:DKKF1:1,2019-03-06T02:00:00Z,25.1800,-80.4900,1.5,34.89,1111122 
ENP,ioos.station.NOAA.NDBC:DKKF1:1,2019-03-06T03:00:00Z,25.1800,-80.4900,1.5,34.9,11111222 
ENP,ioos.station.NOAA.NDBC:DKKF1:1,2019-03-06T04:00:00Z,25.1800,-80.4900,1.5,34.86,1111122 
ENP,ioos.station.NOAA.NDBC:DKKF1:1,2019-03-06T05:00:00Z,25.1800,-80.4900,1.5,34.86,1111122 
ENP,ioos.station.NOAA.NDBC:DKKF1:1,2019-03-06T06:00:00Z,25.1800,-80.4900,1.5,34.86,1111122 
ENP,ioos.station.NOAA.NDBC:DKKF1:1,2019-03-06T07:00:00Z,25.1800,-80.4900,1.5,34.84,1111122 
ENP,ioos.station.NOAA.NDBC:DKKF1:1,2019-03-06T08:00:00Z,25.1800,-80.4900,1.5,34.77,1111122 
ENP,ioos.station.NOAA.NDBC:DKKF1:1,2019-03-06T09:00:00Z,25.1800,-80.4900,1.5,34.8,1111122 
ENP,ioos.station.NOAA.NDBC:DKKF1:1,2019-03-06T10:00:00Z,25.1800,-80.4900,1.5,34.79,1111122 
ENP,ioos.station.NOAA.NDBC:DKKF1:1,2019-03-06T11:00:00Z,25.1800,-80.4900,1.5,34.8,1111122 
ENP,ioos.station.NOAA.NDBC:DKKF1:1,2019-03-06T12:00:00Z,25.1800,-80.4900,1.5,34.78,1111122 
ENP,ioos.station.NOAA.NDBC:DKKF1:1,2019-03-06T13:00:00Z,25.1800,-80.4900,1.5,34.75,1111122 
ENP,ioos.station.NOAA.NDBC:DKKF1:1,2019-03-06T14:00:00Z,25.1800,-80.4900,1.5,34.73,1111122 
ENP,ioos.station.NOAA.NDBC:DKKF1:1,2019-03-06T15:00:00Z,25.1800,-80.4900,1.5,34.72,1111122 
ENP,ioos.station.NOAA.NDBC:DKKF1:1,2019-03-06T16:00:00Z,25.1800,-80.4900,1.5,34.75,1111122 
ENP,ioos.station.NOAA.NDBC:DKKF1:1,2019-03-06T17:00:00Z,25.1800,-80.4900,1.5,34.75,1111122 
ENP,ioos.station.NOAA.NDBC:DKKF1:1,2019-03-06T18:00:00Z,25.1800,-80.4900,1.5,34.75,1111122 
ENP,ioos.station.NOAA.NDBC:DKKF1:1,2019-03-06T19:00:00Z,25.1800,-80.4900,1.5,34.78,1111122 
ENP,ioos.station.NOAA.NDBC:DKKF1:1,2019-03-06T20:00:00Z,25.1800,-80.4900,1.5,34.81,1111122 
ENP,ioos.station.NOAA.NDBC:DKKF1:1,2019-03-06T21:00:00Z,25.1800,-80.4900,1.5,34.83,1111122 
ENP,ioos.station.NOAA.NDBC:DKKF1:1,2019-03-06T22:00:00Z,25.1800,-80.4900,1.5,34.85,1111122 
ENP,ioos.station.NOAA.NDBC:DKKF1:1,2019-03-06T23:00:00Z,25.1800,-80.4900,1.5,34.86,1111122 
ENP,ioos.station.NOAA.NDBC:DKKF1:1,2019-03-07T00:00:00Z,25.1800,-80.4900,1.5,34.89,1111122 
ENP,ioos.station.NOAA.NDBC:DKKF1:1,2019-03-07T01:00:00Z,25.1800,-80.4900,1.5,34.88,1111122 
ENP,ioos.station.NOAA.NDBC:DKKF1:1,2019-03-07T02:00:00Z,25.1800,-80.4900,1.5,34.86,1111122 
ENP,ioos.station.NOAA.NDBC:DKKF1:1,2019-03-07T03:00:00Z,25.1800,-80.4900,1.5,34.9,11111222 
ENP,ioos.station.NOAA.NDBC:DKKF1:1,2019-03-07T04:00:00Z,25.1800,-80.4900,1.5,34.86,1111122 
ENP,ioos.station.NOAA.NDBC:DKKF1:1,2019-03-07T05:00:00Z,25.1800,-80.4900,1.5,34.86,1111122 
ENP,ioos.station.NOAA.NDBC:DKKF1:1,2019-03-07T06:00:00Z,25.1800,-80.4900,1.5,34.84,1111122 
ENP,ioos.station.NOAA.NDBC:DKKF1:1,2019-03-07T07:00:00Z,25.1800,-80.4900,1.5,34.88,1111122 
ENP,ioos.station.NOAA.NDBC:DKKF1:1,2019-03-07T08:00:00Z,25.1800,-80.4900,1.5,34.9,1111122 
ENP,ioos.station.NOAA.NDBC:DKKF1:1,2019-03-07T09:00:00Z,25.1800,-80.4900,1.5,34.92,1111122 
ENP,ioos.station.NOAA.NDBC:DKKF1:1,2019-03-07T10:00:00Z,25.1800,-80.4900,1.5,34.92,1111122 
ENP,ioos.station.NOAA.NDBC:DKKF1:1,2019-03-07T11:00:00Z,25.1800,-80.4900,1.5,34.93,1111122 
ENP,ioos.station.NOAA.NDBC:DKKF1:1,2019-03-07T12:00:00Z,25.1800,-80.4900,1.5,34.9,1111122 
ENP,ioos.station.NOAA.NDBC:DKKF1:1,2019-03-07T13:00:00Z,25.1800,-80.4900,1.5,34.88,1111122 
ENP,ioos.station.NOAA.NDBC:DKKF1:1,2019-03-07T14:00:00Z,25.1800,-80.4900,1.5,34.86,1111122 
ENP,ioos.station.NOAA.NDBC:DKKF1:1,2019-03-07T15:00:00Z,25.1800,-80.4900,1.5,34.87,1111122 
ENP,ioos.station.NOAA.NDBC:DKKF1:1,2019-03-07T16:00:00Z,25.1800,-80.4900,1.5,34.89,1111122 
ENP,ioos.station.NOAA.NDBC:DKKF1:1,2019-03-07T17:00:00Z,25.1800,-80.4900,1.5,34.89,1111122 
ENP,ioos.station.NOAA.NDBC:DKKF1:1,2019-03-07T18:00:00Z,25.1800,-80.4900,1.5,34.89,1111122 
ENP,ioos.station.NOAA.NDBC:DKKF1:1,2019-03-07T19:00:00Z,25.1800,-80.4900,1.5,34.88,1111122 
ENP,ioos.station.NOAA.NDBC:DKKF1:1,2019-03-07T20:00:00Z,25.1800,-80.4900,1.5,34.88,1111122 
ENP,ioos.station.NOAA.NDBC:DKKF1:1,2019-03-07T21:00:00Z,25.1800,-80.4900,1.5,34.87,1111122 
ENP,ioos.station.NOAA.NDBC:DKKF1:1,2019-03-07T22:00:00Z,25.1800,-80.4900,1.5,34.87,1111122 
ENP,ioos.station.NOAA.NDBC:DKKF1:1,2019-03-07T23:00:00Z,25.1800,-80.4900,1.5,34.86,1111122 
ENP,ioos.station.NOAA.NDBC:DKKF1:1,2019-03-08T00:00:00Z,25.1800,-80.4900,1.5,34.87,1111122 
ENP,ioos.station.NOAA.NDBC:DKKF1:1,2019-03-08T01:00:00Z,25.1800,-80.4900,1.5,34.86,1111122 
ENP,ioos.station.NOAA.NDBC:DKKF1:1,2019-03-08T02:00:00Z,25.1800,-80.4900,1.5,34.87,1111122 
ENP,ioos.station.NOAA.NDBC:DKKF1:1,2019-03-08T03:00:00Z,25.1800,-80.4900,1.5,34.9,11111222 
ENP,ioos.station.NOAA.NDBC:DKKF1:1,2019-03-08T04:00:00Z,25.1800,-80.4900,1.5,34.87,1111122 
ENP,ioos.station.NOAA.NDBC:DKKF1:1,2019-03-08T05:00:00Z,25.1800,-80.4900,1.5,34.88,1111122 
ENP,ioos.station.NOAA.NDBC:DKKF1:1,2019-03-08T06:00:00Z,25.1800,-80.4900,1.5,34.88,1111122 
ENP,ioos.station.NOAA.NDBC:DKKF1:1,2019-03-08T07:00:00Z,25.1800,-80.4900,1.5,34.89,1111122 
ENP,ioos.station.NOAA.NDBC:DKKF1:1,2019-03-08T08:00:00Z,25.1800,-80.4900,1.5,34.89,1111122 
ENP,ioos.station.NOAA.NDBC:DKKF1:1,2019-03-08T09:00:00Z,25.1800,-80.4900,1.5,34.89,1111122 
ENP,ioos.station.NOAA.NDBC:DKKF1:1,2019-03-08T10:00:00Z,25.1800,-80.4900,1.5,34.89,1111122 
ENP,ioos.station.NOAA.NDBC:DKKF1:1,2019-03-08T11:00:00Z,25.1800,-80.4900,1.5,34.9,1111122 
ENP,ioos.station.NOAA.NDBC:DKKF1:1,2019-03-08T12:00:00Z,25.1800,-80.4900,1.5,34.9,1111122 
ENP,ioos.station.NOAA.NDBC:DKKF1:1,2019-03-08T13:00:00Z,25.1800,-80.4900,1.5,34.9,11111222 
ENP,ioos.station.NOAA.NDBC:DKKF1:1,2019-03-08T14:00:00Z,25.1800,-80.4900,1.5,34.91,1111122 
ENP,ioos.station.NOAA.NDBC:DKKF1:1,2019-03-08T15:00:00Z,25.1800,-80.4900,1.5,34.94,1111122 
ENP,ioos.station.NOAA.NDBC:DKKF1:1,2019-03-08T16:00:00Z,25.1800,-80.4900,1.5,34.94,1111122 
ENP,ioos.station.NOAA.NDBC:DKKF1:1,2019-03-08T17:00:00Z,25.1800,-80.4900,1.5,34.94,1111122 
ENP,ioos.station.NOAA.NDBC:DKKF1:1,2019-03-08T18:00:00Z,25.1800,-80.4900,1.5,34.96,1111122 
ENP,ioos.station.NOAA.NDBC:DKKF1:1,2019-03-08T19:00:00Z,25.1800,-80.4900,1.5,34.97,1111122 
ENP,ioos.station.NOAA.NDBC:DKKF1:1,2019-03-08T20:00:00Z,25.1800,-80.4900,1.5,34.99,1111122 
ENP,ioos.station.NOAA.NDBC:DKKF1:1,2019-03-08T21:00:00Z,25.1800,-80.4900,1.5,35.0,1111122 
ENP,ioos.station.NOAA.NDBC:DKKF1:1,2019-03-08T22:00:00Z,25.1800,-80.4900,1.5,35.0,1111122 
ENP,ioos.station.NOAA.NDBC:DKKF1:1,2019-03-08T23:00:00Z,25.1800,-80.4900,1.5,35.0,1111122 
ENP,ioos.station.NOAA.NDBC:DKKF1:1,2019-03-09T00:00:00Z,25.1800,-80.4900,1.5,35.0,1111122 
ENP,ioos.station.NOAA.NDBC:DKKF1:1,2019-03-09T01:00:00Z,25.1800,-80.4900,1.5,35.0,11111222 
ENP,ioos.station.NOAA.NDBC:DKKF1:1,2019-03-09T02:00:00Z,25.1800,-80.4900,1.5,35.02,1111122 
ENP,ioos.station.NOAA.NDBC:DKKF1:1,2019-03-09T03:00:00Z,25.1800,-80.4900,1.5,35.0,11111222 
ENP,ioos.station.NOAA.NDBC:DKKF1:1,2019-03-09T04:00:00Z,25.1800,-80.4900,1.5,35.04,1111122 
ENP,ioos.station.NOAA.NDBC:DKKF1:1,2019-03-09T05:00:00Z,25.1800,-80.4900,1.5,35.04,1111122 
ENP,ioos.station.NOAA.NDBC:DKKF1:1,2019-03-09T06:00:00Z,25.1800,-80.4900,1.5,35.03,1111122 
ENP,ioos.station.NOAA.NDBC:DKKF1:1,2019-03-09T07:00:00Z,25.1800,-80.4900,1.5,35.04,1111122 
ENP,ioos.station.NOAA.NDBC:DKKF1:1,2019-03-09T08:00:00Z,25.1800,-80.4900,1.5,35.05,1111122 
ENP,ioos.station.NOAA.NDBC:DKKF1:1,2019-03-09T09:00:00Z,25.1800,-80.4900,1.5,35.09,1111122 
ENP,ioos.station.NOAA.NDBC:DKKF1:1,2019-03-09T10:00:00Z,25.1800,-80.4900,1.5,35.11,1111122 
ENP,ioos.station.NOAA.NDBC:DKKF1:1,2019-03-09T11:00:00Z,25.1800,-80.4900,1.5,35.12,1111122 
ENP,ioos.station.NOAA.NDBC:DKKF1:1,2019-03-09T12:00:00Z,25.1800,-80.4900,1.5,35.13,1111122 
ENP,ioos.station.NOAA.NDBC:DKKF1:1,2019-03-09T13:00:00Z,25.1800,-80.4900,1.5,35.14,1111122 
ENP,ioos.station.NOAA.NDBC:DKKF1:1,2019-03-09T14:00:00Z,25.1800,-80.4900,1.5,35.17,1111122 
ENP,ioos.station.NOAA.NDBC:DKKF1:1,2019-03-09T15:00:00Z,25.1800,-80.4900,1.5,35.24,1111122 
ENP,ioos.station.NOAA.NDBC:DKKF1:1,2019-03-09T16:00:00Z,25.1800,-80.4900,1.5,35.25,1111122 
ENP,ioos.station.NOAA.NDBC:DKKF1:1,2019-03-09T17:00:00Z,25.1800,-80.4900,1.5,35.26,1111122 
ENP,ioos.station.NOAA.NDBC:DKKF1:1,2019-03-09T18:00:00Z,25.1800,-80.4900,1.5,35.27,1111122 
ENP,ioos.station.NOAA.NDBC:DKKF1:1,2019-03-09T19:00:00Z,25.1800,-80.4900,1.5,35.29,1111122 
ENP,ioos.station.NOAA.NDBC:DKKF1:1,2019-03-09T20:00:00Z,25.1800,-80.4900,1.5,35.34,1111122 
ENP,ioos.station.NOAA.NDBC:DKKF1:1,2019-03-09T21:00:00Z,25.1800,-80.4900,1.5,35.35,1111122 
ENP,ioos.station.NOAA.NDBC:DKKF1:1,2019-03-09T22:00:00Z,25.1800,-80.4900,1.5,35.37,1111122 
ENP,ioos.station.NOAA.NDBC:DKKF1:1,2019-03-09T23:00:00Z,25.1800,-80.4900,1.5,35.37,1111122 
ENP,ioos.station.NOAA.NDBC:DKKF1:1,2019-03-10T00:00:00Z,25.1800,-80.4900,1.5,35.37,1111122 
ENP,ioos.station.NOAA.NDBC:DKKF1:1,2019-03-10T01:00:00Z,25.1800,-80.4900,1.5,35.4,11111222 
ENP,ioos.station.NOAA.NDBC:DKKF1:1,2019-03-10T02:00:00Z,25.1800,-80.4900,1.5,35.37,1111122 
ENP,ioos.station.NOAA.NDBC:DKKF1:1,2019-03-10T03:00:00Z,25.1800,-80.4900,1.5,35.4,11111222 
ENP,ioos.station.NOAA.NDBC:DKKF1:1,2019-03-10T04:00:00Z,25.1800,-80.4900,1.5,35.37,1111122 
ENP,ioos.station.NOAA.NDBC:DKKF1:1,2019-03-10T05:00:00Z,25.1800,-80.4900,1.5,35.37,1111122 
ENP,ioos.station.NOAA.NDBC:DKKF1:1,2019-03-10T06:00:00Z,25.1800,-80.4900,1.5,35.38,1111122 
ENP,ioos.station.NOAA.NDBC:DKKF1:1,2019-03-10T07:00:00Z,25.1800,-80.4900,1.5,35.38,1111122 
ENP,ioos.station.NOAA.NDBC:DKKF1:1,2019-03-10T08:00:00Z,25.1800,-80.4900,1.5,35.39,1111122 
ENP,ioos.station.NOAA.NDBC:DKKF1:1,2019-03-10T09:00:00Z,25.1800,-80.4900,1.5,35.39,1111122 
ENP,ioos.station.NOAA.NDBC:DKKF1:1,2019-03-10T10:00:00Z,25.1800,-80.4900,1.5,35.39,1111122 
ENP,ioos.station.NOAA.NDBC:DKKF1:1,2019-03-10T11:00:00Z,25.1800,-80.4900,1.5,35.37,1111122 
ENP,ioos.station.NOAA.NDBC:DKKF1:1,2019-03-10T12:00:00Z,25.1800,-80.4900,1.5,35.3,1111122 
ENP,ioos.station.NOAA.NDBC:DKKF1:1,2019-03-10T13:00:00Z,25.1800,-80.4900,1.5,35.3,1111122 
ENP,ioos.station.NOAA.NDBC:DKKF1:1,2019-03-10T14:00:00Z,25.1800,-80.4900,1.5,35.29,1111122 
ENP,ioos.station.NOAA.NDBC:DKKF1:1,2019-03-10T15:00:00Z,25.1800,-80.4900,1.5,35.29,1111122 
ENP,ioos.station.NOAA.NDBC:DKKF1:1,2019-03-10T16:00:00Z,25.1800,-80.4900,1.5,35.29,1111122 
ENP,ioos.station.NOAA.NDBC:DKKF1:1,2019-03-10T17:00:00Z,25.1800,-80.4900,1.5,35.3,1111122 
ENP,ioos.station.NOAA.NDBC:DKKF1:1,2019-03-10T18:00:00Z,25.1800,-80.4900,1.5,35.3,1111122 
ENP,ioos.station.NOAA.NDBC:DKKF1:1,2019-03-10T19:00:00Z,25.1800,-80.4900,1.5,35.31,1111122 
ENP,ioos.station.NOAA.NDBC:DKKF1:1,2019-03-10T20:00:00Z,25.1800,-80.4900,1.5,35.31,1111122 
ENP,ioos.station.NOAA.NDBC:DKKF1:1,2019-03-10T21:00:00Z,25.1800,-80.4900,1.5,35.3,11111222 
ENP,ioos.station.NOAA.NDBC:DKKF1:1,2019-03-10T22:00:00Z,25.1800,-80.4900,1.5,35.3,11111222 
ENP,ioos.station.NOAA.NDBC:DKKF1:1,2019-03-10T23:00:00Z,25.1800,-80.4900,1.5,35.3,11111222 
ENP,ioos.station.NOAA.NDBC:DKKF1:1,2019-03-11T01:00:00Z,25.1800,-80.4900,1.5,35.3,11111222 
ENP,ioos.station.NOAA.NDBC:DKKF1:1,2019-03-11T03:00:00Z,25.1800,-80.4900,1.5,35.34,1111122 
ENP,ioos.station.NOAA.NDBC:DKKF1:1,2019-03-11T04:00:00Z,25.1800,-80.4900,1.5,35.32,1111122 
ENP,ioos.station.NOAA.NDBC:DKKF1:1,2019-03-11T05:00:00Z,25.1800,-80.4900,1.5,35.28,1111122 
ENP,ioos.station.NOAA.NDBC:DKKF1:1,2019-03-11T06:00:00Z,25.1800,-80.4900,1.5,35.24,1111122 
ENP,ioos.station.NOAA.NDBC:DKKF1:1,2019-03-11T07:00:00Z,25.1800,-80.4900,1.5,35.2,1111122 
ENP,ioos.station.NOAA.NDBC:DKKF1:1,2019-03-11T08:00:00Z,25.1800,-80.4900,1.5,35.22,1111122 
ENP,ioos.station.NOAA.NDBC:DKKF1:1,2019-03-11T09:00:00Z,25.1800,-80.4900,1.5,35.23,1111122 
ENP,ioos.station.NOAA.NDBC:DKKF1:1,2019-03-11T10:00:00Z,25.1800,-80.4900,1.5,35.23,1111122 
ENP,ioos.station.NOAA.NDBC:DKKF1:1,2019-03-11T11:00:00Z,25.1800,-80.4900,1.5,35.23,1111122 
ENP,ioos.station.NOAA.NDBC:DKKF1:1,2019-03-11T12:00:00Z,25.1800,-80.4900,1.5,35.23,1111122 
ENP,ioos.station.NOAA.NDBC:DKKF1:1,2019-03-11T13:00:00Z,25.1800,-80.4900,1.5,35.23,1111122 
ENP,ioos.station.NOAA.NDBC:DKKF1:1,2019-03-11T14:00:00Z,25.1800,-80.4900,1.5,35.21,1111122 
ENP,ioos.station.NOAA.NDBC:DKKF1:1,2019-03-11T15:00:00Z,25.1800,-80.4900,1.5,35.2,1111122 
ENP,ioos.station.NOAA.NDBC:DKKF1:1,2019-03-11T16:00:00Z,25.1800,-80.4900,1.5,35.2,1111122 
ENP,ioos.station.NOAA.NDBC:DKKF1:1,2019-03-11T17:00:00Z,25.1800,-80.4900,1.5,35.2,1111122 
ENP,ioos.station.NOAA.NDBC:DKKF1:1,2019-03-11T18:00:00Z,25.1800,-80.4900,1.5,35.21,1111122 
ENP,ioos.station.NOAA.NDBC:DKKF1:1,2019-03-11T19:00:00Z,25.1800,-80.4900,1.5,35.22,1111122 
ENP,ioos.station.NOAA.NDBC:DKKF1:1,2019-03-11T20:00:00Z,25.1800,-80.4900,1.5,35.24,1111122 
ENP,ioos.station.NOAA.NDBC:DKKF1:1,2019-03-11T21:00:00Z,25.1800,-80.4900,1.5,35.25,1111122 